When you browse on this site, cookies collect data to enhance your experience and personalize the content and advertising you see.
Visit our Privacy Policy to learn more. By continuing to use the site, you agree to this use of cookies and data.
  • En España
  • Lista de países
  • Para 7 días
  • Temperatura del agua
  • Mapa Satelital
  • El tiempo en el mapa
  • Informadores
  • user-avatar
    Iniciar sesión

    Tiempo cada hora Newcastle

    Hoy, 20 Abril, Sábado

    Tiempo Temperatura Precipitaciones Viento Presión Humedad
    00:00 +19°C° 0 mm 1 mps 769 mmHg 97%
    01:00 +19°C° 0 mm 1 mps 768 mmHg 98%
    02:00 +19°C° 0 mm 1 mps 768 mmHg 98%
    03:00 +19°C° 0 mm 1 mps 768 mmHg 98%
    04:00 +17°C° 0 mm 0 mps 768 mmHg 98%
    05:00 +19°C° 0 mm 1 mps 768 mmHg 98%
    06:00 +19°C° 0 mm 1 mps 768 mmHg 98%
    07:00 +19°C° 0 mm 1 mps 768 mmHg 98%
    08:00 +22°C° 0 mm 1 mps 769 mmHg 89%
    09:00 +24°C° 0 mm 1 mps 769 mmHg 79%
    10:00 +26°C° 0 mm 2 mps 769 mmHg 69%
    11:00 +27°C° 0 mm 2 mps 768 mmHg 67%
    12:00 +27°C° 0 mm 2 mps 768 mmHg 65%
    13:00 +27°C° 0 mm 3 mps 767 mmHg 63%
    14:00 +27°C° 0 mm 3 mps 767 mmHg 65%
    15:00 +26°C° 0 mm 3 mps 766 mmHg 67%
    16:00 +25°C° 0 mm 3 mps 766 mmHg 70%
    17:00 +24°C° 0 mm 3 mps 767 mmHg 77%
    18:00 +22°C° 0 mm 3 mps 767 mmHg 84%
    19:00 +20°C° 0 mm 3 mps 767 mmHg 92%
    20:00 +20°C° 0 mm 3 mps 768 mmHg 92%
    21:00 +20°C° 0 mm 3 mps 768 mmHg 93%
    22:00 +19°C° 0 mm 3 mps 767 mmHg 96%
    23:00 +19°C° 0 mm 3 mps 767 mmHg 96%

    Mañana, 21 Abril, Domingo

    Tiempo Temperatura Precipitaciones Viento Presión Humedad
    00:00 +19°C° 0 mm 3 mps 767 mmHg 96%
    01:00 +19°C° 0 mm 3 mps 767 mmHg 96%
    02:00 +19°C° 0 mm 3 mps 767 mmHg 97%
    03:00 +18°C° 0 mm 3 mps 767 mmHg 97%
    04:00 +18°C° 0 mm 2 mps 767 mmHg 98%
    05:00 +18°C° 0 mm 2 mps 767 mmHg 97%
    06:00 +18°C° 0 mm 2 mps 767 mmHg 97%
    07:00 +18°C° 0 mm 2 mps 767 mmHg 97%
    08:00 +20°C° 0 mm 2 mps 767 mmHg 86%
    09:00 +22°C° 0 mm 3 mps 767 mmHg 75%
    10:00 +26°C° 0 mm 3 mps 767 mmHg 64%
    11:00 +27°C° 0 mm 3 mps 767 mmHg 60%
    12:00 +28°C° 0 mm 3 mps 766 mmHg 57%
    13:00 +29°C° 0 mm 4 mps 766 mmHg 53%
    14:00 +28°C° 0 mm 4 mps 765 mmHg 56%
    15:00 +27°C° 0 mm 4 mps 765 mmHg 60%
    16:00 +27°C° 0 mm 4 mps 765 mmHg 63%
    17:00 +25°C° 0 mm 4 mps 765 mmHg 69%
    18:00 +23°C° 0 mm 4 mps 766 mmHg 75%
    19:00 +22°C° 0 mm 4 mps 766 mmHg 81%
    20:00 +21°C° 0 mm 4 mps 766 mmHg 83%
    21:00 +21°C° 0 mm 5 mps 766 mmHg 85%
    22:00 +20°C° 0 mm 5 mps 766 mmHg 88%
    23:00 +20°C° 0 mm 5 mps 766 mmHg 88%

    Pasado mañana, 22 Abril, Lunes

    Tiempo Temperatura Precipitaciones Viento Presión Humedad
    00:00 +20°C° 0 mm 5 mps 766 mmHg 88%
    01:00 +19°C° 0 mm 5 mps 766 mmHg 88%
    02:00 +19°C° 0 mm 4 mps 766 mmHg 88%
    03:00 +18°C° 0 mm 4 mps 765 mmHg 88%
    04:00 +18°C° 0 mm 4 mps 765 mmHg 89%
    05:00 +18°C° 0 mm 4 mps 765 mmHg 89%
    06:00 +18°C° 0 mm 3 mps 766 mmHg 88%
    07:00 +18°C° 0 mm 3 mps 766 mmHg 88%
    08:00 +20°C° 0 mm 3 mps 766 mmHg 80%
    09:00 +21°C° 0 mm 3 mps 766 mmHg 72%
    10:00 +24°C° 0 mm 3 mps 767 mmHg 63%
    11:00 +26°C° 0 mm 3 mps 766 mmHg 58%
    12:00 +27°C° 0 mm 3 mps 766 mmHg 53%
    13:00 +28°C° 0 mm 3 mps 765 mmHg 49%
    14:00 +27°C° 0 mm 3 mps 765 mmHg 52%
    15:00 +27°C° 0 mm 3 mps 765 mmHg 56%
    16:00 +27°C° 0 mm 4 mps 765 mmHg 59%
    17:00 +25°C° 0 mm 4 mps 765 mmHg 69%
    18:00 +22°C° 0 mm 4 mps 766 mmHg 78%
    19:00 +20°C° 0 mm 3 mps 766 mmHg 87%
    20:00 +20°C° 0 mm 3 mps 767 mmHg 89%
    21:00 +19°C° 0 mm 3 mps 767 mmHg 91%
    22:00 +19°C° 0 mm 3 mps 768 mmHg 92%
    23:00 +19°C° 0 mm 3 mps 768 mmHg 92%

    23 Abril, Martes

    Tiempo Temperatura Precipitaciones Viento Presión Humedad
    00:00 +18°C° 0 mm 2 mps 767 mmHg 93%
    01:00 +18°C° 0 mm 2 mps 767 mmHg 93%
    02:00 +17°C° 0 mm 2 mps 767 mmHg 94%
    03:00 +18°C° 0 mm 1 mps 767 mmHg 95%
    04:00 +16°C° 0 mm 1 mps 767 mmHg 96%
    05:00 +18°C° 0 mm 1 mps 768 mmHg 96%
    06:00 +18°C° 0 mm 1 mps 768 mmHg 95%
    07:00 +18°C° 0 mm 1 mps 769 mmHg 95%
    08:00 +20°C° 0 mm 1 mps 769 mmHg 86%
    09:00 +23°C° 0 mm 1 mps 769 mmHg 76%
    10:00 +25°C° 0 mm 1 mps 769 mmHg 67%
    11:00 +26°C° 0 mm 2 mps 768 mmHg 65%
    12:00 +27°C° 0 mm 2 mps 768 mmHg 63%
    13:00 +27°C° 0 mm 2 mps 767 mmHg 61%
    14:00 +26°C° 0 mm 2 mps 767 mmHg 63%
    15:00 +26°C° 0 mm 3 mps 767 mmHg 66%
    16:00 +25°C° 0 mm 3 mps 767 mmHg 69%
    17:00 +24°C° 0.5 mm 2 mps 767 mmHg 76%
    18:00 +21°C° 0.5 mm 2 mps 768 mmHg 84%
    19:00 +21°C° 0.5 mm 1 mps 768 mmHg 92%
    20:00 +20°C° 0.3 mm 1 mps 769 mmHg 92%
    21:00 +20°C° 0.3 mm 1 mps 769 mmHg 93%
    22:00 +20°C° 0.3 mm 1 mps 769 mmHg 94%
    23:00 +19°C° 0.1 mm 1 mps 769 mmHg 95%

    24 Abril, Miércoles

    Tiempo Temperatura Precipitaciones Viento Presión Humedad
    00:00 +19°C° 0.1 mm 1 mps 768 mmHg 96%
    01:00 +19°C° 0.1 mm 1 mps 768 mmHg 97%
    02:00 +18°C° 0 mm 1 mps 768 mmHg 97%
    03:00 +18°C° 0 mm 1 mps 767 mmHg 98%
    04:00 +18°C° 0 mm 1 mps 767 mmHg 98%
    05:00 +18°C° 0 mm 1 mps 768 mmHg 98%
    06:00 +18°C° 0 mm 1 mps 768 mmHg 98%
    07:00 +19°C° 0 mm 1 mps 768 mmHg 97%
    08:00 +21°C° 0 mm 1 mps 768 mmHg 87%
    09:00 +23°C° 0 mm 1 mps 768 mmHg 76%
    10:00 +26°C° 0 mm 1 mps 768 mmHg 65%
    11:00 +27°C° 0 mm 1 mps 768 mmHg 60%
    12:00 +28°C° 0 mm 1 mps 767 mmHg 56%
    13:00 +29°C° 0 mm 2 mps 766 mmHg 51%
    14:00 +28°C° 0 mm 2 mps 766 mmHg 55%
    15:00 +27°C° 0 mm 3 mps 766 mmHg 58%
    16:00 +26°C° 0 mm 3 mps 765 mmHg 62%
    17:00 +25°C° 0 mm 4 mps 766 mmHg 70%
    18:00 +22°C° 0 mm 4 mps 766 mmHg 78%
    19:00 +20°C° 0 mm 4 mps 766 mmHg 86%
    20:00 +20°C° 0 mm 4 mps 766 mmHg 88%
    21:00 +19°C° 0 mm 4 mps 766 mmHg 90%
    22:00 +19°C° 0 mm 4 mps 766 mmHg 92%
    23:00 +18°C° 0 mm 3 mps 766 mmHg 93%

    25 Abril, Jueves

    Tiempo Temperatura Precipitaciones Viento Presión Humedad
    00:00 +18°C° 0 mm 3 mps 765 mmHg 95%
    01:00 +17°C° 0 mm 2 mps 765 mmHg 96%
    02:00 +17°C° 0 mm 2 mps 765 mmHg 94%
    03:00 +17°C° 0 mm 2 mps 765 mmHg 91%
    04:00 +17°C° 0 mm 2 mps 764 mmHg 89%
    05:00 +17°C° 0 mm 2 mps 765 mmHg 86%
    06:00 +17°C° 0 mm 2 mps 765 mmHg 83%
    07:00 +17°C° 0 mm 2 mps 765 mmHg 79%
    08:00 +20°C° 0 mm 3 mps 765 mmHg 71%
    09:00 +22°C° 0 mm 3 mps 765 mmHg 63%
    10:00 +26°C° 0 mm 3 mps 766 mmHg 55%
    11:00 +26°C° 0 mm 4 mps 765 mmHg 54%
    12:00 +27°C° 0 mm 4 mps 765 mmHg 54%
    13:00 +27°C° 0 mm 4 mps 764 mmHg 53%
    14:00 +26°C° 0 mm 4 mps 764 mmHg 59%
    15:00 +25°C° 0 mm 4 mps 764 mmHg 64%
    16:00 +23°C° 0 mm 4 mps 764 mmHg 70%
    17:00 +22°C° 0 mm 4 mps 764 mmHg 77%
    18:00 +20°C° 0 mm 3 mps 765 mmHg 85%
    19:00 +19°C° 0 mm 2 mps 766 mmHg 93%
    20:00 +19°C° 0 mm 2 mps 766 mmHg 94%
    21:00 +19°C° 0 mm 1 mps 766 mmHg 95%
    22:00 +19°C° 0 mm 1 mps 766 mmHg 97%
    23:00 +19°C° 0 mm 1 mps 766 mmHg 96%
    Mostrar más